﻿測定場所 (Monitoring sites),日付 (Measurement date),時間 (Measurement time),線量率 最大値 (max) μGy/h,線量率 最小値 (min) μGy/h,線量率 平均値 (average) μGy/h,
江戸川 (Edogawa),2015-09-06,23:01～24:00,0.0780,0.0670,0.0718,
江戸川 (Edogawa),2015-09-06,22:01～23:00,0.0771,0.0692,0.0732,
江戸川 (Edogawa),2015-09-06,21:01～22:00,0.0775,0.0653,0.0704,
江戸川 (Edogawa),2015-09-06,20:01～21:00,0.0761,0.0665,0.0711,
江戸川 (Edogawa),2015-09-06,19:01～20:00,0.0879,0.0718,0.0789,
江戸川 (Edogawa),2015-09-06,18:01～19:00,0.0826,0.0641,0.0738,
江戸川 (Edogawa),2015-09-06,17:01～18:00,0.0692,0.0605,0.0654,
江戸川 (Edogawa),2015-09-06,16:01～17:00,0.0684,0.0599,0.0637,
江戸川 (Edogawa),2015-09-06,15:01～16:00,0.0651,0.0582,0.0614,
江戸川 (Edogawa),2015-09-06,14:01～15:00,0.0650,0.0585,0.0614,
江戸川 (Edogawa),2015-09-06,13:01～14:00,0.0640,0.0580,0.0612,
江戸川 (Edogawa),2015-09-06,12:01～13:00,0.0651,0.0586,0.0613,
江戸川 (Edogawa),2015-09-06,11:01～12:00,0.0644,0.0575,0.0611,
江戸川 (Edogawa),2015-09-06,10:01～11:00,0.0638,0.0584,0.0614,
江戸川 (Edogawa),2015-09-06,09:01～10:00,0.0660,0.0565,0.0609,
江戸川 (Edogawa),2015-09-06,08:01～09:00,0.0644,0.0569,0.0612,
江戸川 (Edogawa),2015-09-06,07:01～08:00,0.0650,0.0577,0.0616,
江戸川 (Edogawa),2015-09-06,06:01～07:00,0.0646,0.0589,0.0615,
江戸川 (Edogawa),2015-09-06,05:01～06:00,0.0655,0.0576,0.0617,
江戸川 (Edogawa),2015-09-06,04:01～05:00,0.0642,0.0580,0.0614,
江戸川 (Edogawa),2015-09-06,03:01～04:00,0.0657,0.0583,0.0616,
江戸川 (Edogawa),2015-09-06,02:01～03:00,0.0649,0.0580,0.0611,
江戸川 (Edogawa),2015-09-06,01:01～02:00,0.0654,0.0586,0.0616,
江戸川 (Edogawa),2015-09-06,00:01～01:00,0.0640,0.0585,0.0610,
江戸川 (Edogawa),2015-09-05,23:01～24:00,0.0650,0.0584,0.0614,
江戸川 (Edogawa),2015-09-05,22:01～23:00,0.0651,0.0574,0.0614,
江戸川 (Edogawa),2015-09-05,21:01～22:00,0.0655,0.0578,0.0615,
江戸川 (Edogawa),2015-09-05,20:01～21:00,0.0653,0.0571,0.0613,
江戸川 (Edogawa),2015-09-05,19:01～20:00,0.0651,0.0577,0.0613,
江戸川 (Edogawa),2015-09-05,18:01～19:00,0.0638,0.0570,0.0612,
江戸川 (Edogawa),2015-09-05,17:01～18:00,0.0650,0.0568,0.0614,
江戸川 (Edogawa),2015-09-05,16:01～17:00,0.0633,0.0575,0.0607,
江戸川 (Edogawa),2015-09-05,15:01～16:00,0.0668,0.0577,0.0611,
江戸川 (Edogawa),2015-09-05,14:01～15:00,0.0648,0.0590,0.0613,
江戸川 (Edogawa),2015-09-05,13:01～14:00,0.0646,0.0573,0.0613,
江戸川 (Edogawa),2015-09-05,12:01～13:00,0.0652,0.0581,0.0614,
江戸川 (Edogawa),2015-09-05,11:01～12:00,0.0663,0.0581,0.0613,
江戸川 (Edogawa),2015-09-05,10:01～11:00,0.0643,0.0580,0.0613,
江戸川 (Edogawa),2015-09-05,09:01～10:00,0.0645,0.0585,0.0613,
江戸川 (Edogawa),2015-09-05,08:01～09:00,0.0649,0.0585,0.0612,
江戸川 (Edogawa),2015-09-05,07:01～08:00,0.0651,0.0571,0.0610,
江戸川 (Edogawa),2015-09-05,06:01～07:00,0.0674,0.0579,0.0610,
江戸川 (Edogawa),2015-09-05,05:01～06:00,0.0644,0.0571,0.0611,
江戸川 (Edogawa),2015-09-05,04:01～05:00,0.0649,0.0582,0.0615,
江戸川 (Edogawa),2015-09-05,03:01～04:00,0.0655,0.0580,0.0610,
江戸川 (Edogawa),2015-09-05,02:01～03:00,0.0637,0.0567,0.0612,
江戸川 (Edogawa),2015-09-05,01:01～02:00,0.0658,0.0574,0.0612,
江戸川 (Edogawa),2015-09-05,00:01～01:00,0.0654,0.0580,0.0613,
江戸川 (Edogawa),2015-09-04,23:01～24:00,0.0642,0.0565,0.0610,
江戸川 (Edogawa),2015-09-04,22:01～23:00,0.0652,0.0576,0.0608,
江戸川 (Edogawa),2015-09-04,21:01～22:00,0.0648,0.0577,0.0610,
江戸川 (Edogawa),2015-09-04,20:01～21:00,0.0668,0.0559,0.0607,
江戸川 (Edogawa),2015-09-04,19:01～20:00,0.0641,0.0579,0.0608,
江戸川 (Edogawa),2015-09-04,18:01～19:00,0.0643,0.0568,0.0610,
江戸川 (Edogawa),2015-09-04,17:01～18:00,0.0641,0.0585,0.0611,
江戸川 (Edogawa),2015-09-04,16:01～17:00,0.0680,0.0580,0.0626,
江戸川 (Edogawa),2015-09-04,15:01～16:00,0.0706,0.0608,0.0648,
江戸川 (Edogawa),2015-09-04,14:01～15:00,0.0660,0.0580,0.0611,
江戸川 (Edogawa),2015-09-04,13:01～14:00,0.0647,0.0567,0.0606,
江戸川 (Edogawa),2015-09-04,12:01～13:00,0.0642,0.0552,0.0600,
江戸川 (Edogawa),2015-09-04,11:01～12:00,0.0643,0.0569,0.0605,
江戸川 (Edogawa),2015-09-04,10:01～11:00,0.0632,0.0567,0.0599,
江戸川 (Edogawa),2015-09-04,09:01～10:00,0.0628,0.0556,0.0598,
江戸川 (Edogawa),2015-09-04,08:01～09:00,0.0639,0.0556,0.0597,
江戸川 (Edogawa),2015-09-04,07:01～08:00,0.0641,0.0567,0.0598,
江戸川 (Edogawa),2015-09-04,06:01～07:00,0.0635,0.0558,0.0593,
江戸川 (Edogawa),2015-09-04,05:01～06:00,0.0645,0.0570,0.0604,
江戸川 (Edogawa),2015-09-04,04:01～05:00,0.0714,0.0587,0.0638,
江戸川 (Edogawa),2015-09-04,03:01～04:00,0.0745,0.0673,0.0709,
江戸川 (Edogawa),2015-09-04,02:01～03:00,0.0750,0.0655,0.0704,
江戸川 (Edogawa),2015-09-04,01:01～02:00,0.0745,0.0656,0.0706,
江戸川 (Edogawa),2015-09-04,00:01～01:00,0.0736,0.0625,0.0675,
江戸川 (Edogawa),2015-09-03,23:01～24:00,0.0674,0.0584,0.0624,
江戸川 (Edogawa),2015-09-03,22:01～23:00,0.0639,0.0567,0.0607,
江戸川 (Edogawa),2015-09-03,21:01～22:00,0.0640,0.0564,0.0611,
江戸川 (Edogawa),2015-09-03,20:01～21:00,0.0650,0.0594,0.0620,
江戸川 (Edogawa),2015-09-03,19:01～20:00,0.0671,0.0594,0.0626,
江戸川 (Edogawa),2015-09-03,18:01～19:00,0.0665,0.0596,0.0627,
江戸川 (Edogawa),2015-09-03,17:01～18:00,0.0649,0.0587,0.0620,
江戸川 (Edogawa),2015-09-03,16:01～17:00,0.0643,0.0581,0.0615,
江戸川 (Edogawa),2015-09-03,15:01～16:00,0.0658,0.0578,0.0614,
江戸川 (Edogawa),2015-09-03,14:01～15:00,0.0649,0.0577,0.0608,
江戸川 (Edogawa),2015-09-03,13:01～14:00,0.0656,0.0582,0.0609,
江戸川 (Edogawa),2015-09-03,12:01～13:00,0.0635,0.0570,0.0609,
江戸川 (Edogawa),2015-09-03,11:01～12:00,0.0627,0.0579,0.0605,
江戸川 (Edogawa),2015-09-03,10:01～11:00,0.0626,0.0557,0.0597,
江戸川 (Edogawa),2015-09-03,09:01～10:00,0.0637,0.0569,0.0599,
江戸川 (Edogawa),2015-09-03,08:01～09:00,0.0633,0.0557,0.0597,
江戸川 (Edogawa),2015-09-03,07:01～08:00,0.0647,0.0569,0.0602,
江戸川 (Edogawa),2015-09-03,06:01～07:00,0.0645,0.0565,0.0603,
江戸川 (Edogawa),2015-09-03,05:01～06:00,0.0644,0.0576,0.0605,
江戸川 (Edogawa),2015-09-03,04:01～05:00,0.0640,0.0581,0.0611,
江戸川 (Edogawa),2015-09-03,03:01～04:00,0.0638,0.0562,0.0605,
江戸川 (Edogawa),2015-09-03,02:01～03:00,0.0654,0.0578,0.0608,
江戸川 (Edogawa),2015-09-03,01:01～02:00,0.0635,0.0577,0.0604,
江戸川 (Edogawa),2015-09-03,00:01～01:00,0.0640,0.0562,0.0603,
江戸川 (Edogawa),2015-09-02,23:01～24:00,0.0627,0.0562,0.0602,
江戸川 (Edogawa),2015-09-02,22:01～23:00,0.0646,0.0575,0.0605,
江戸川 (Edogawa),2015-09-02,21:01～22:00,0.0639,0.0578,0.0604,
江戸川 (Edogawa),2015-09-02,20:01～21:00,0.0645,0.0572,0.0605,
江戸川 (Edogawa),2015-09-02,19:01～20:00,0.0633,0.0561,0.0600,
江戸川 (Edogawa),2015-09-02,18:01～19:00,0.0638,0.0559,0.0597,
江戸川 (Edogawa),2015-09-02,17:01～18:00,0.0634,0.0568,0.0599,
江戸川 (Edogawa),2015-09-02,16:01～17:00,0.0634,0.0571,0.0600,
江戸川 (Edogawa),2015-09-02,15:01～16:00,0.0638,0.0554,0.0593,
江戸川 (Edogawa),2015-09-02,14:01～15:00,0.0631,0.0565,0.0594,
江戸川 (Edogawa),2015-09-02,13:01～14:00,0.0617,0.0561,0.0590,
江戸川 (Edogawa),2015-09-02,12:01～13:00,0.0622,0.0568,0.0599,
江戸川 (Edogawa),2015-09-02,11:01～12:00,0.0643,0.0574,0.0605,
江戸川 (Edogawa),2015-09-02,10:01～11:00,0.0685,0.0592,0.0646,
江戸川 (Edogawa),2015-09-02,09:01～10:00,0.0663,0.0572,0.0619,
江戸川 (Edogawa),2015-09-02,08:01～09:00,0.0712,0.0602,0.0656,
江戸川 (Edogawa),2015-09-02,07:01～08:00,0.0707,0.0601,0.0653,
江戸川 (Edogawa),2015-09-02,06:01～07:00,0.0632,0.0580,0.0605,
江戸川 (Edogawa),2015-09-02,05:01～06:00,0.0649,0.0578,0.0609,
江戸川 (Edogawa),2015-09-02,04:01～05:00,0.0628,0.0562,0.0600,
江戸川 (Edogawa),2015-09-02,03:01～04:00,0.0642,0.0567,0.0608,
江戸川 (Edogawa),2015-09-02,02:01～03:00,0.0675,0.0597,0.0638,
江戸川 (Edogawa),2015-09-02,01:01～02:00,0.0669,0.0552,0.0615,
江戸川 (Edogawa),2015-09-02,00:01～01:00,0.0633,0.0560,0.0591,
江戸川 (Edogawa),2015-09-01,23:01～24:00,0.0632,0.0557,0.0597,
江戸川 (Edogawa),2015-09-01,22:01～23:00,0.0641,0.0568,0.0602,
江戸川 (Edogawa),2015-09-01,21:01～22:00,0.0621,0.0560,0.0593,
江戸川 (Edogawa),2015-09-01,20:01～21:00,0.0638,0.0556,0.0598,
江戸川 (Edogawa),2015-09-01,19:01～20:00,0.0624,0.0579,0.0599,
江戸川 (Edogawa),2015-09-01,18:01～19:00,0.0643,0.0558,0.0599,
江戸川 (Edogawa),2015-09-01,17:01～18:00,0.0629,0.0552,0.0595,
江戸川 (Edogawa),2015-09-01,16:01～17:00,0.0635,0.0560,0.0598,
江戸川 (Edogawa),2015-09-01,15:01～16:00,0.0653,0.0555,0.0599,
江戸川 (Edogawa),2015-09-01,14:01～15:00,0.0632,0.0568,0.0597,
江戸川 (Edogawa),2015-09-01,13:01～14:00,0.0641,0.0561,0.0601,
江戸川 (Edogawa),2015-09-01,12:01～13:00,0.0643,0.0577,0.0616,
江戸川 (Edogawa),2015-09-01,11:01～12:00,0.0643,0.0584,0.0614,
江戸川 (Edogawa),2015-09-01,10:01～11:00,0.0638,0.0574,0.0607,
江戸川 (Edogawa),2015-09-01,09:01～10:00,0.0638,0.0567,0.0607,
江戸川 (Edogawa),2015-09-01,08:01～09:00,0.0636,0.0565,0.0602,
江戸川 (Edogawa),2015-09-01,07:01～08:00,0.0635,0.0573,0.0599,
江戸川 (Edogawa),2015-09-01,06:01～07:00,0.0631,0.0555,0.0596,
江戸川 (Edogawa),2015-09-01,05:01～06:00,0.0638,0.0564,0.0598,
江戸川 (Edogawa),2015-09-01,04:01～05:00,0.0639,0.0552,0.0599,
江戸川 (Edogawa),2015-09-01,03:01～04:00,0.0629,0.0563,0.0595,
江戸川 (Edogawa),2015-09-01,02:01～03:00,0.0641,0.0568,0.0602,
江戸川 (Edogawa),2015-09-01,01:01～02:00,0.0653,0.0577,0.0608,
江戸川 (Edogawa),2015-09-01,00:01～01:00,0.0629,0.0557,0.0600,
江戸川 (Edogawa),2015-08-31,23:01～24:00,0.0636,0.0567,0.0600,
江戸川 (Edogawa),2015-08-31,22:01～23:00,0.0633,0.0560,0.0597,
江戸川 (Edogawa),2015-08-31,21:01～22:00,0.0633,0.0548,0.0595,
江戸川 (Edogawa),2015-08-31,20:01～21:00,0.0625,0.0559,0.0597,
江戸川 (Edogawa),2015-08-31,19:01～20:00,0.0635,0.0556,0.0593,
江戸川 (Edogawa),2015-08-31,18:01～19:00,0.0642,0.0564,0.0595,
江戸川 (Edogawa),2015-08-31,17:01～18:00,0.0635,0.0568,0.0595,
江戸川 (Edogawa),2015-08-31,16:01～17:00,0.0645,0.0558,0.0598,
江戸川 (Edogawa),2015-08-31,15:01～16:00,0.0628,0.0572,0.0600,
江戸川 (Edogawa),2015-08-31,14:01～15:00,0.0633,0.0565,0.0597,
江戸川 (Edogawa),2015-08-31,13:01～14:00,0.0628,0.0559,0.0592,
江戸川 (Edogawa),2015-08-31,12:01～13:00,0.0627,0.0567,0.0595,
江戸川 (Edogawa),2015-08-31,11:01～12:00,0.0620,0.0552,0.0594,
江戸川 (Edogawa),2015-08-31,10:01～11:00,0.0626,0.0569,0.0595,
江戸川 (Edogawa),2015-08-31,09:01～10:00,0.0634,0.0566,0.0594,
江戸川 (Edogawa),2015-08-31,08:01～09:00,0.0652,0.0566,0.0604,
江戸川 (Edogawa),2015-08-31,07:01～08:00,0.0651,0.0580,0.0614,
江戸川 (Edogawa),2015-08-31,06:01～07:00,0.0645,0.0572,0.0608,
江戸川 (Edogawa),2015-08-31,05:01～06:00,0.0634,0.0571,0.0601,
江戸川 (Edogawa),2015-08-31,04:01～05:00,0.0649,0.0569,0.0612,
江戸川 (Edogawa),2015-08-31,03:01～04:00,0.0659,0.0585,0.0627,
江戸川 (Edogawa),2015-08-31,02:01～03:00,0.0675,0.0567,0.0615,
江戸川 (Edogawa),2015-08-31,01:01～02:00,0.0627,0.0571,0.0597,
江戸川 (Edogawa),2015-08-31,00:01～01:00,0.0633,0.0556,0.0594,
